TimeMST,TemperatureF,Dew PointF,Humidity,Sea Level PressureIn,VisibilityMPH,Wind Direction,Wind SpeedMPH,Gust SpeedMPH,PrecipitationIn,Events,Conditions,WindDirDegrees,DateUTC
12:15 AM,24.8,5.0,43,29.88,10.0,NNE,10.4,21.9,N/A,,Mostly Cloudy,30,2012-12-19 07:15:00
12:35 AM,24.8,3.2,40,29.89,10.0,NNE,6.9,-,N/A,,Mostly Cloudy,30,2012-12-19 07:35:00
12:55 AM,24.8,3.2,40,29.89,10.0,West,4.6,-,N/A,,Mostly Cloudy,280,2012-12-19 07:55:00
1:15 AM,23.0,6.8,50,29.89,10.0,NW,19.6,26.5,N/A,,Clear,310,2012-12-19 08:15:00
1:35 AM,24.8,6.8,46,29.89,10.0,NW,20.7,25.3,N/A,,Scattered Clouds,320,2012-12-19 08:35:00
1:55 AM,23.0,8.6,54,29.89,10.0,NW,23.0,28.8,N/A,,Overcast,320,2012-12-19 08:55:00
2:15 AM,23.0,6.8,50,29.91,10.0,NW,21.9,27.6,N/A,,Partly Cloudy,320,2012-12-19 09:15:00
2:35 AM,21.2,6.8,54,29.92,10.0,NW,17.3,-,N/A,,Scattered Clouds,320,2012-12-19 09:35:00
2:55 AM,21.2,8.6,58,29.93,10.0,NW,18.4,27.6,N/A,,Mostly Cloudy,310,2012-12-19 09:55:00
3:15 AM,21.2,6.8,54,29.93,10.0,WNW,16.1,20.7,N/A,,Partly Cloudy,300,2012-12-19 10:15:00
3:35 AM,21.2,8.6,58,29.95,10.0,NW,16.1,21.9,N/A,,Clear,320,2012-12-19 10:35:00
3:55 AM,21.2,6.8,54,29.96,10.0,NW,12.7,17.3,N/A,,Clear,320,2012-12-19 10:55:00
4:15 AM,21.2,5.0,50,29.96,10.0,WSW,8.1,-,N/A,,Clear,240,2012-12-19 11:15:00
4:35 AM,21.2,6.8,54,29.96,10.0,WNW,15.0,19.6,N/A,,Clear,300,2012-12-19 11:35:00
4:55 AM,21.2,5.0,50,29.97,10.0,NW,10.4,23.0,N/A,,Clear,320,2012-12-19 11:55:00
5:15 AM,23.0,3.2,43,29.98,10.0,NW,12.7,25.3,N/A,,Clear,310,2012-12-19 12:15:00
5:35 AM,23.0,3.2,43,29.99,10.0,NNW,18.4,24.2,N/A,,Clear,330,2012-12-19 12:35:00
5:55 AM,21.2,5.0,50,30.00,10.0,North,21.9,33.4,N/A,,Clear,350,2012-12-19 12:55:00
6:15 AM,21.2,3.2,46,30.03,10.0,East,4.6,-,N/A,,Clear,90,2012-12-19 13:15:00
6:35 AM,21.2,3.2,46,30.03,10.0,NW,23.0,27.6,N/A,,Clear,320,2012-12-19 13:35:00
6:55 AM,21.2,3.2,46,30.05,10.0,NW,24.2,27.6,N/A,,Clear,320,2012-12-19 13:55:00
7:15 AM,21.2,3.2,46,30.06,10.0,NW,23.0,29.9,N/A,,Clear,320,2012-12-19 14:15:00
7:35 AM,21.2,3.2,46,30.06,10.0,NW,27.6,32.2,N/A,,Clear,320,2012-12-19 14:35:00
7:55 AM,21.2,1.4,42,30.07,10.0,NW,26.5,33.4,N/A,,Clear,320,2012-12-19 14:55:00
8:15 AM,21.2,3.2,46,30.08,10.0,NW,25.3,32.2,N/A,,Clear,320,2012-12-19 15:15:00
8:35 AM,23.0,3.2,43,30.10,10.0,NW,21.9,33.4,N/A,,Clear,320,2012-12-19 15:35:00
8:55 AM,23.0,3.2,43,30.11,10.0,NNW,17.3,31.1,N/A,,Clear,330,2012-12-19 15:55:00
9:15 AM,24.8,3.2,40,30.12,10.0,NW,15.0,29.9,N/A,,Clear,320,2012-12-19 16:15:00
9:35 AM,26.6,3.2,37,30.15,10.0,East,4.6,19.6,N/A,,Clear,100,2012-12-19 16:35:00
9:55 AM,26.6,1.4,34,30.15,10.0,WNW,6.9,-,N/A,,Clear,290,2012-12-19 16:55:00
10:15 AM,26.6,1.4,34,30.16,10.0,NW,6.9,-,N/A,,Clear,310,2012-12-19 17:15:00
10:35 AM,28.4,3.2,34,30.17,10.0,ESE,6.9,-,N/A,,Clear,120,2012-12-19 17:35:00
10:55 AM,28.4,1.4,31,30.19,10.0,SW,5.8,-,N/A,,Clear,230,2012-12-19 17:55:00
11:15 AM,30.2,3.2,32,30.19,10.0,SE,9.2,-,N/A,,Clear,130,2012-12-19 18:15:00
11:35 AM,30.2,1.4,29,30.19,10.0,ESE,9.2,-,N/A,,Clear,110,2012-12-19 18:35:00
11:55 AM,30.2,1.4,29,30.20,10.0,SE,8.1,-,N/A,,Clear,130,2012-12-19 18:55:00
12:15 PM,30.2,3.2,32,30.20,10.0,SE,6.9,-,N/A,,Clear,140,2012-12-19 19:15:00
12:35 PM,30.2,1.4,29,30.21,10.0,East,3.5,-,N/A,,Clear,90,2012-12-19 19:35:00
12:55 PM,30.2,1.4,29,30.22,10.0,NNE,3.5,-,N/A,,Clear,20,2012-12-19 19:55:00
1:15 PM,32.0,1.4,27,30.22,10.0,ESE,5.8,-,N/A,,Clear,120,2012-12-19 20:15:00
1:35 PM,30.2,1.4,29,30.22,10.0,ESE,5.8,-,N/A,,Clear,110,2012-12-19 20:35:00
1:55 PM,32.0,3.2,30,30.22,10.0,SE,13.8,-,N/A,,Clear,130,2012-12-19 20:55:00
2:15 PM,30.2,3.2,32,30.22,10.0,SSE,12.7,-,N/A,,Clear,150,2012-12-19 21:15:00
2:35 PM,30.2,3.2,32,30.22,10.0,SSE,11.5,-,N/A,,Clear,150,2012-12-19 21:35:00
3:15 PM,30.2,3.2,32,30.24,10.0,South,9.2,-,N/A,,Clear,170,2012-12-19 22:15:00
3:35 PM,30.2,1.4,29,30.25,10.0,South,9.2,-,N/A,,Clear,170,2012-12-19 22:35:00
3:55 PM,30.2,1.4,29,30.25,10.0,SSE,6.9,-,N/A,,Clear,150,2012-12-19 22:55:00
4:15 PM,30.2,1.4,29,30.25,10.0,South,9.2,-,N/A,,Clear,180,2012-12-19 23:15:00
4:35 PM,30.2,5.0,34,30.26,10.0,South,11.5,-,N/A,,Clear,170,2012-12-19 23:35:00
4:55 PM,28.4,5.0,37,30.27,10.0,SSE,9.2,-,N/A,,Clear,160,2012-12-19 23:55:00
5:15 PM,28.4,6.8,40,30.28,10.0,SSE,9.2,-,N/A,,Clear,160,2012-12-20 00:15:00
5:35 PM,26.6,6.8,43,30.28,10.0,SSE,10.4,-,N/A,,Clear,160,2012-12-20 00:35:00
5:55 PM,26.6,8.6,47,30.28,10.0,SSE,10.4,-,N/A,,Clear,160,2012-12-20 00:55:00
6:15 PM,24.8,8.6,50,30.29,10.0,SSE,8.1,-,N/A,,Clear,160,2012-12-20 01:15:00
6:35 PM,24.8,8.6,50,30.30,10.0,SSE,8.1,-,N/A,,Clear,160,2012-12-20 01:35:00
6:55 PM,23.0,8.6,54,30.31,10.0,Calm,Calm,-,N/A,,Clear,0,2012-12-20 01:55:00
7:15 PM,23.0,8.6,54,30.31,10.0,Calm,Calm,-,N/A,,Clear,0,2012-12-20 02:15:00
7:35 PM,21.2,6.8,54,30.31,10.0,Calm,Calm,-,N/A,,Clear,0,2012-12-20 02:35:00
7:55 PM,19.4,5.0,54,30.32,10.0,East,5.8,-,N/A,,Clear,100,2012-12-20 02:55:00
8:15 PM,19.4,6.8,58,30.33,10.0,East,4.6,-,N/A,,Clear,100,2012-12-20 03:15:00
8:35 PM,19.4,5.0,54,30.33,10.0,ESE,5.8,-,N/A,,Clear,110,2012-12-20 03:35:00
8:55 PM,19.4,5.0,54,30.33,10.0,ESE,5.8,-,N/A,,Clear,120,2012-12-20 03:55:00
9:15 PM,19.4,6.8,58,30.33,10.0,East,5.8,-,N/A,,Clear,90,2012-12-20 04:15:00
9:35 PM,19.4,6.8,58,30.33,10.0,East,4.6,-,N/A,,Clear,80,2012-12-20 04:35:00
9:55 PM,19.4,6.8,58,30.34,10.0,ENE,4.6,-,N/A,,Clear,70,2012-12-20 04:55:00
10:15 PM,19.4,6.8,58,30.34,10.0,East,6.9,-,N/A,,Clear,80,2012-12-20 05:15:00
10:35 PM,17.6,6.8,63,30.34,10.0,NE,8.1,-,N/A,,Clear,50,2012-12-20 05:35:00
10:55 PM,17.6,6.8,63,30.35,10.0,NE,10.4,-,N/A,,Clear,50,2012-12-20 05:55:00
11:15 PM,17.6,5.0,58,30.35,10.0,NE,9.2,-,N/A,,Clear,50,2012-12-20 06:15:00
11:35 PM,17.6,5.0,58,30.35,10.0,ENE,8.1,-,N/A,,Clear,60,2012-12-20 06:35:00
11:55 PM,15.8,5.0,62,30.36,10.0,ENE,9.2,-,N/A,,Clear,70,2012-12-20 06:55:00